User: anonymous   Login
Location: Prague
(50.0830°N, 14.4670°E)
Time: 02:24:21
(UTC+01:00)
Language:

RS-44 - Orbit

View from above orbital plane
View from above orbital plane
View from above satellite
View from above satellite

Ground track
Ground track

The orbit data is extracted from the following two-line orbital elements,

1 44909U 19096E   21339.53415463  .00000020  00000-0  29043-4 0  9994
2 44909  82.5217 359.1365 0218297  53.3364 308.7585 12.79711399 90709
Epoch (UTC): 05 December 2021 12:49:10
Eccentricity: 0.0218297
inclination: 82.5217°
perigee height: 1174 km
apogee height: 1511 km
right ascension of ascending node: 359.1365°
argument of perigee: 53.3364°
revolutions per day: 12.79711399
mean anomaly at epoch: 308.7585°
orbit number at epoch: 9070

The dashed part of the orbit path shows where the satellite is in the earth's shadow,  

DLR